Theta_e
316 315 314 314 313 314 313 313 309 311 311 315 318 320 323 325 327 329 333 335 337 336 337 338 338 340 339 339 343 350 353 354 354 358 359 359 360 361 361 358 352 357 353 359
312 315 314 312 313 314 313 313 312 312 311 319 323 323 322 326 327 330 332 332 333 334 334 332 334 336 337 338 339 342 346 347 350 352 354 353 357 362 353 339 340 341 354 354
309 314 313 308 312 313 314 314 313 308 313 322 320 321 323 327 328 329 330 331 333 334 334 335 335 337 335 337 338 339 340 342 344 348 349 351 352 354 359 343 339 347 356 354
308 311 301 313 317 314 311 312 312 314 316 321 322 324 325 328 328 329 330 332 332 331 331 331 332 332 335 335 338 339 340 340 341 342 343 349 351 352 357 359 357 356 356 360
306 306 309 311 313 312 311 311 317 316 318 320 321 322 322 326 330 329 329 329 329 330 330 331 330 331 333 333 334 335 336 340 341 341 343 344 346 352 355 355 353 356 357 363
307 302 299 312 315 317 316 305 319 319 318 318 320 313 318 324 325 325 326 326 325 326 327 328 330 330 333 334 338 337 341 341 345 344 345 343 348 351 353 355 353 346 353 358
306 304 308 316 317 318 305 310 319 319 319 318 316 319 322 323 322 323 324 325 328 328 327 329 331 331 331 336 336 341 342 343 345 345 346 346 348 350 349 350 351 353 351 354
308 305 303 318 316 310 317 320 319 319 318 317 318 319 319 320 322 323 324 325 327 327 327 330 331 333 334 335 339 341 340 341 343 344 340 336 345 347 347 350 351 351 351 348
311 311 319 319 317 319 319 318 318 318 318 319 318 319 320 321 323 324 325 326 327 327 328 331 332 335 332 338 341 337 335 336 338 342 341 341 341 342 337 341 337 336 334 336
310 314 315 316 318 319 319 318 319 320 320 321 319 321 321 322 323 324 325 326 327 327 326 326 331 330 332 334 337 337 334 335 335 334 335 339 334 334 333 330 330 333 334 335
311 314 317 317 318 320 320 320 320 321 321 321 321 321 323 323 325 325 326 326 326 326 326 327 329 330 332 332 333 331 332 331 331 329 329 330 334 332 332 335 328 329 331 333
309 316 317 317 319 320 319 319 321 321 321 324 324 323 322 322 323 324 323 328 328 328 329 329 329 332 334 338 336 331 333 331 328 328 326 327 326 329 319 316 314 308 306 317
316 319 319 319 321 321 320 322 322 321 322 320 322 322 323 323 326 322 324 325 327 327 328 330 332 332 333 331 335 334 333 331 330 326 328 326 327 325 325 324 311 308 307 305
319 319 317 318 317 322 322 323 322 322 321 322 323 323 323 323 323 323 321 326 323 324 324 329 325 325 326 330 335 332 330 319 331 331 331 328 327 327 326 328 328 328 312 310
319 319 319 321 323 322 323 321 320 320 321 317 318 319 318 318 319 319 325 325 327 323 325 325 327 325 326 331 332 332 333 331 331 331 329 326 327 327 327 325 330 327 329 313
318 319 321 321 321 321 321 321 320 319 316 316 315 316 316 317 317 319 320 325 322 320 326 330 326 331 330 325 325 327 331 325 326 330 333 332 334 330 325 326 326 326 327 328
316 318 321 320 319 321 320 319 318 316 316 315 316 317 317 317 318 320 323 330 331 331 332 331 330 334 333 333 334 334 334 335 327 333 334 333 331 329 328 325 324 323 324 327
323 322 322 321 320 321 318 317 318 316 314 315 316 317 317 317 318 323 326 331 331 330 329 330 331 332 334 335 336 337 335 335 332 331 327 330 328 328 327 329 327 326 324 326
323 322 322 322 322 320 317 317 316 316 317 316 315 314 315 316 316 319 324 327 318 315 317 323 320 323 326 325 325 333 331 329 329 327 326 324 332 329 328 332 329 327 325 324
323 322 322 323 322 318 317 317 318 316 316 315 314 312 312 313 314 315 314 313 312 311 315 314 315 314 314 315 317 321 326 329 328 328 329 328 327 327 328 319 328 328 324 327
321 321 323 320 318 321 319 318 316 314 314 313 311 310 311 314 314 315 309 307 309 311 311 310 309 308 309 311 314 314 321 327 331 329 328 334 332 330 328 328 331 328 327 328
321 321 321 321 319 318 319 319 316 315 315 313 313 311 311 312 310 310 311 306 308 309 310 309 308 310 310 314 313 316 320 323 326 330 331 333 330 332 330 328 329 332 329 329
322 322 321 320 320 320 320 317 320 317 316 314 314 315 314 311 309 306 305 310 309 309 309 308 309 309 308 308 311 312 312 314 320 325 327 329 330 332 332 333 334 335 337 338
322 322 321 321 322 321 320 317 316 315 315 315 315 314 313 310 312 313 314 311 309 312 312 308 308 308 307 306 306 306 306 306 308 308 310 307 312 314 314 314 318 323 325 323
323 322 321 319 319 318 318 315 313 315 314 314 314 313 314 313 311 312 312 312 308 312 314 310 309 308 306 305 305 305 304 304 304 305 305 304 304 305 307 308 308 308 309 310
321 318 318 319 314 312 312 312 310 311 312 311 312 312 313 313 313 313 313 310 313 310 313 313 312 313 309 306 305 304 304 303 304 303 303 303 302 302 301 301 303 301 301 301
316 307 314 313 313 312 312 311 311 311 311 312 311 313 313 313 312 311 309 312 312 312 311 311 311 311 312 314 312 307 305 305 301 303 304 304 303 302 301 300 299 298 298 298
Wind_Speed
13 9 6 15 16 14 13 14 15 17 18 14 10 10 8 6 7 5 3 5 4 7 5 2 3 3 4 6 7 8 6 1 1 3 5 6 7 8 7 7 7 11 16 11
14 16 19 16 15 17 16 18 17 16 14 9 10 4 3 3 5 1 3 1 1 1 2 2 1 2 4 5 6 6 6 4 4 5 6 6 6 6 7 3 8 9 18 14
15 14 19 15 15 12 14 11 12 14 5 6 1 1 2 1 1 2 2 3 4 4 5 3 7 5 4 3 6 6 6 6 6 6 6 6 7 6 5 8 8 10 16 15
14 16 18 11 7 4 8 10 12 10 9 8 8 6 5 4 4 5 5 5 5 7 7 9 9 10 8 8 6 7 8 8 8 7 8 8 7 8 7 5 9 10 13 14
13 14 15 13 5 4 8 8 8 4 4 2 4 8 13 8 2 5 7 8 9 11 11 11 12 13 12 11 11 11 11 11 10 9 9 9 9 9 8 8 7 7 7 10
11 12 12 13 9 6 5 9 11 7 6 6 9 9 3 7 8 11 14 14 15 17 17 16 15 15 14 13 12 12 12 12 11 11 10 11 10 10 10 9 10 10 10 9
9 9 3 9 6 5 8 7 7 7 8 9 10 11 15 18 18 17 16 17 17 17 16 17 16 16 16 14 13 13 13 13 13 12 12 11 12 11 10 12 11 11 12 10
6 9 6 10 5 6 7 7 10 11 13 15 16 17 18 18 18 18 19 19 19 18 18 18 17 15 15 16 13 12 13 13 13 13 12 13 13 13 14 13 12 11 12 12
8 7 4 4 5 5 9 11 12 13 14 16 18 19 19 19 20 19 20 18 18 18 19 17 18 14 14 13 13 13 15 15 14 14 14 13 14 14 12 13 14 13 13 13
5 6 5 6 10 8 11 13 12 14 17 19 20 21 22 21 20 19 19 19 18 18 15 12 11 11 12 9 12 15 13 13 14 15 15 15 14 14 14 14 14 13 13 13
7 3 8 4 11 11 14 16 18 18 19 20 22 22 22 21 20 18 17 14 12 12 12 14 14 16 14 11 12 12 14 15 15 14 13 13 14 14 13 13 14 13 12 12
6 7 6 10 12 14 14 15 17 20 21 21 23 23 20 15 14 15 16 19 19 21 21 21 19 18 15 15 14 13 14 13 13 13 9 13 12 12 20 20 19 15 12 8
5 8 10 12 13 15 16 18 18 19 19 18 13 13 16 17 18 19 21 22 20 20 21 20 18 18 17 13 12 15 14 15 12 11 12 13 12 10 11 11 22 22 20 15
5 7 12 12 14 15 13 14 13 16 17 18 21 21 23 22 21 18 18 18 18 19 19 20 15 17 14 15 14 13 12 13 12 12 12 13 14 11 9 11 12 11 18 19
8 10 13 14 14 16 15 16 20 20 20 18 17 16 16 17 18 18 21 20 20 17 18 17 18 17 13 13 13 13 12 11 11 12 10 12 10 10 13 12 13 13 13 3
12 13 13 13 12 13 17 19 19 19 17 16 16 16 16 16 16 17 18 20 14 14 16 17 12 16 10 8 10 11 12 19 16 10 10 11 10 12 10 11 11 10 11 9
12 12 14 15 14 17 16 14 14 14 14 16 17 16 16 16 15 16 18 16 13 12 12 12 12 12 11 12 14 11 11 9 10 10 10 10 10 13 11 9 9 9 10 12
9 8 11 12 14 15 14 15 14 14 13 15 15 15 15 15 15 17 15 15 14 14 15 15 16 17 13 11 11 9 8 9 10 11 10 11 10 8 9 11 11 11 11 13
7 10 10 11 13 13 12 12 13 13 12 12 13 14 13 13 15 15 19 15 14 14 15 15 21 17 14 16 16 10 10 12 12 10 8 10 10 11 11 10 13 11 11 13
9 8 10 14 13 10 11 11 13 11 11 12 13 12 14 14 15 13 15 13 13 11 17 18 17 14 15 16 17 10 10 10 15 12 12 12 11 11 10 11 13 14 9 15
5 9 14 12 9 10 10 10 11 12 11 11 12 13 13 13 15 13 15 11 16 17 15 20 15 12 11 13 12 10 12 12 12 12 10 11 10 11 11 11 12 12 13 10
5 9 10 10 9 9 10 10 10 11 12 13 13 13 13 14 16 13 11 12 11 21 12 11 13 25 19 25 5 6 8 10 10 10 11 8 7 8 8 8 11 12 10 11
6 8 6 8 8 8 9 8 9 10 10 11 11 12 9 4 5 8 10 12 7 13 11 12 24 29 29 15 13 12 12 11 8 6 7 8 8 9 8 9 7 8 9 9
5 5 4 2 5 8 8 7 8 8 11 10 11 10 11 10 10 9 9 6 11 7 12 18 23 28 24 13 14 14 13 11 11 12 11 13 10 9 8 9 9 8 7 8
2 2 5 5 4 3 4 8 8 9 10 11 11 12 13 11 11 11 12 13 15 15 15 22 26 26 14 13 13 13 14 13 13 12 12 11 11 10 9 9 10 9 8 8
4 5 7 6 7 7 6 7 8 8 8 9 9 10 11 10 10 10 11 13 14 14 14 14 15 14 13 14 14 15 13 13 12 12 12 12 15 11 9 11 10 10 9 9
5 5 5 5 6 7 6 6 7 9 10 9 9 10 10 10 11 11 12 12 12 13 13 13 13 13 13 13 13 12 12 11 15 13 13 12 9 10 13 10 8 10 10 9
Wind_Direction
303 302 259 287 293 291 271 276 275 299 306 320 6 40 28 334 291 316 41 27 22 23 32 66 60 35 32 28 26 24 20 297 260 318 291 280 283 284 279 353 319 294 277 231
285 291 288 261 276 287 280 278 279 289 287 29 63 91 79 45 328 338 85 185 180 231 258 267 135 316 353 2 0 3 351 10 348 341 345 353 343 303 104 46 277 298 283 251
278 282 294 279 270 290 294 294 310 296 358 52 231 120 18 257 257 294 260 251 287 305 272 309 292 264 238 335 321 328 322 317 314 322 316 324 325 315 173 196 269 252 255 255
278 279 267 270 52 330 306 310 298 314 327 45 347 343 272 196 276 291 293 304 294 288 298 291 307 328 333 300 288 282 284 282 289 291 299 309 299 295 295 215 223 242 254 260
273 261 278 270 109 348 352 327 1 332 351 288 288 308 275 265 209 299 303 297 287 282 295 304 295 287 280 276 275 278 271 274 271 270 272 278 279 281 279 287 271 256 251 267
251 268 283 62 67 15 4 278 34 350 337 333 338 283 69 28 321 301 297 296 295 295 294 290 290 290 288 284 273 266 266 267 266 268 264 260 265 267 273 263 270 264 262 243
240 255 237 54 14 331 269 40 350 351 336 318 301 310 312 308 306 302 299 295 292 289 284 281 279 279 279 278 273 278 279 273 268 263 262 257 256 254 256 260 264 271 275 271
220 282 265 20 286 336 15 324 342 325 316 311 305 301 299 299 298 298 297 295 291 287 284 282 279 276 276 273 273 276 276 278 272 264 261 264 258 244 239 243 247 257 263 266
337 34 117 343 341 3 331 316 315 314 309 307 305 303 300 297 295 294 294 291 291 289 288 285 277 280 280 275 269 266 268 269 270 269 266 259 256 254 253 247 246 255 256 252
335 75 4 345 321 318 324 312 302 306 310 306 300 299 301 298 295 294 292 291 291 292 289 292 292 283 278 272 273 267 257 259 265 261 255 254 255 248 238 244 255 251 244 238
279 290 359 288 355 337 330 323 316 305 298 298 299 298 300 298 303 302 295 294 302 303 298 294 277 263 258 261 262 260 259 261 261 260 261 258 244 251 254 254 259 261 255 254
3 22 343 329 330 316 304 304 312 309 304 307 314 316 318 323 327 320 307 301 304 304 297 294 287 288 285 280 270 267 267 268 260 262 249 252 255 253 227 235 260 263 257 260
343 338 323 317 310 320 311 308 331 332 314 300 312 316 310 306 310 322 306 297 293 292 292 294 285 283 279 276 275 265 258 255 261 265 265 252 261 256 263 243 224 234 245 248
319 321 319 323 314 311 336 337 310 313 328 327 330 329 321 318 312 307 302 302 309 298 285 289 288 284 282 272 260 261 263 257 258 261 262 267 257 265 277 263 263 246 226 231
342 324 318 312 319 347 343 316 339 333 338 326 316 311 310 309 304 301 299 297 295 293 282 278 277 272 271 266 260 262 261 256 249 250 253 259 271 262 253 266 270 261 262 219
325 322 317 328 349 343 323 344 335 333 327 323 317 313 307 301 295 293 296 296 287 286 288 292 281 280 272 256 265 269 266 252 250 242 242 252 258 257 269 253 265 276 260 248
321 328 337 338 338 337 342 352 334 329 327 324 321 319 312 306 298 300 301 303 304 297 303 316 304 301 289 262 257 259 265 261 246 255 251 249 244 249 247 242 272 252 251 251
333 330 347 335 354 346 346 338 335 335 327 321 322 326 329 326 321 319 321 328 347 355 10 348 348 334 305 279 269 263 260 263 259 246 233 258 243 225 231 253 251 242 256 264
335 6 333 357 10 358 343 336 336 328 326 334 334 341 336 345 340 356 348 4 11 353 343 345 342 340 343 341 346 324 279 278 277 268 245 216 231 252 259 257 265 245 240 254
27 325 3 21 17 355 351 345 336 345 351 347 349 353 348 354 347 0 1 4 2 353 339 342 342 340 336 323 323 311 286 253 260 264 272 276 264 250 258 271 269 278 230 235
332 20 31 27 8 13 6 3 3 357 360 360 6 1 348 1 4 12 10 1 352 344 344 343 341 330 318 308 304 293 284 288 283 271 261 239 252 257 260 255 260 256 254 238
6 42 43 37 34 32 22 23 21 10 20 14 10 2 1 5 6 6 23 9 343 343 342 346 343 346 343 332 288 263 284 294 292 294 287 295 282 269 251 241 250 265 244 235
33 60 43 57 43 42 43 24 29 19 29 18 13 14 16 8 360 1 356 345 341 347 358 355 356 1 6 10 22 32 24 5 349 327 331 327 306 288 272 254 265 265 265 270
49 70 35 115 70 21 15 34 42 23 45 29 14 29 10 5 28 24 7 18 7 6 25 8 9 10 18 17 20 25 20 17 24 22 22 17 15 9 22 23 25 27 33 30
29 120 75 3 61 55 41 18 41 19 27 40 23 14 27 23 20 15 17 12 19 16 33 26 17 16 17 17 18 23 25 19 23 27 27 27 23 14 8 19 29 19 20 13
355 28 81 50 44 26 33 40 39 28 6 23 31 21 19 24 15 18 20 16 21 24 33 36 32 21 20 21 19 19 23 20 22 27 27 30 28 14 13 26 23 31 17 12
122 315 92 75 71 64 41 29 46 45 23 18 28 30 26 23 24 17 13 26 23 19 34 31 35 30 30 34 30 25 21 21 22 23 27 31 21 20 24 18 21 33 19 18